Location: Newark
(21.1200°N, 73.4000°E)
Time: 22:00:54
(UTC+00:00)

Courier 1B Rocket - Pass Details

Date: 24 January 2020
Orbit: 920 x 1202 km, 28.2° (Epoch: 19 February)

Event Time Altitude Azimuth Distance (km) Brightness Sun altitude
Rises 10:14:01 0° 289° (WNW) 3,741 8.4 31.0°
Reaches altitude 10° 10:16:52 10° 294° (WNW) 2,748 7.8 30.5°
Maximum altitude 10:23:17 51° 9° (N) 1,176 5.5 29.3°
Drops below altitude 10° 10:29:23 10° 85° (E) 2,617 6.9 28.2°
Sets 10:32:01 0° 90° (E) 3,549 7.5 27.7°
